Location: Newark
(46.1292°N, 1.0086°W)
Time: 10:41:56
(UTC+00:00)

Vanguard 3 - Pass Details

Date: 16 November 2019
Orbit: 508 x 3263 km, 33.3° (Epoch: 11 December)

Event Time Altitude Azimuth Distance (km) Brightness Sun altitude
Rises 16:02:39 0° 247° (WSW) 7,225 14.4 3.5°
Reaches altitude 10° 16:07:49 10° 243° (WSW) 6,176 14.2 2.7°
Maximum altitude 16:25:41 50° 177° (S) 3,200 10.4 0.0°
Drops below altitude 10° 16:37:49 10° 107° (ESE) 4,325 10.4 -1.8°
Sets 16:40:44 0° 102° (ESE) 4,999 10.7 -2.3°
